Location: *
(2.5500°S, 65.9667°W)
Time: 22:57:54
(UTC+00:00)

Transit 2A - All Passes

Search period start: 16 April 2024 00:00
Search period end: 26 April 2024 00:00
Orbit: 597 x 956 km, 66.7° (Epoch: 16 April)

Date Brightness Start Highest point End Pass type
(mag) Time Alt. Az. Time Alt. Az. Time Alt. Az.
16 Apr - 10:16:08 10° SSW 10:20:32 63° WNW 10:24:47 10° N daylight
16 Apr - 21:07:44 10° NNE 21:12:29 23° ENE 21:17:19 10° ESE daylight
16 Apr - 22:49:54 10° NW 22:55:23 33° WSW 23:00:59 10° S visible
17 Apr - 09:41:03 10° SSW 09:45:29 65° ESE 09:49:44 10° NNE visible
17 Apr - 20:34:25 10° NE 20:37:25 14° ENE 20:40:26 10° E daylight
17 Apr - 22:14:15 10° NW 22:20:17 53° WSW 22:26:26 10° S daylight
18 Apr - 09:06:22 10° S 09:10:23 33° ESE 09:14:16 10° NE visible
18 Apr - 21:38:59 10° NNW 21:45:11 85° WSW 21:51:33 10° SSE daylight
19 Apr - 08:32:15 10° SSE 08:35:16 18° ESE 08:38:12 10° ENE visible
19 Apr - 10:15:08 10° WSW 10:18:02 17° WNW 10:20:54 10° NNW daylight
19 Apr - 21:04:02 10° N 21:10:07 60° ENE 21:16:21 10° SSE daylight
19 Apr - 22:50:46 10° W 22:53:11 12° WSW 22:55:37 10° SW visible
20 Apr - 09:39:03 10° SW 09:42:59 32° WNW 09:46:51 10° N visible
20 Apr - 20:29:25 10° N 20:35:02 37° ENE 20:40:48 10° SE daylight
20 Apr - 22:13:30 10° WNW 22:18:02 21° WSW 22:22:36 10° SSW daylight
21 Apr - 09:03:34 10° SSW 09:07:57 65° WNW 09:12:12 10° NNE visible
21 Apr - 19:55:15 10° NNE 19:59:59 23° ENE 20:04:47 10° ESE daylight
21 Apr - 21:37:22 10° NW 21:42:54 33° WSW 21:48:30 10° S daylight
22 Apr - 08:28:30 10° SSW 08:32:53 63° ESE 08:37:08 10° NNE visible
22 Apr - 19:21:59 10° NE 19:24:54 14° ENE 19:27:52 10° E daylight
22 Apr - 21:01:44 10° NW 21:07:47 54° WSW 21:13:56 10° S daylight
23 Apr - 07:53:50 10° S 07:57:47 32° ESE 08:01:37 10° NE visible
23 Apr - 20:26:27 10° NNW 20:32:41 87° WSW 20:39:01 10° SSE daylight
24 Apr - 07:19:45 10° SSE 07:22:40 17° ESE 07:25:31 10° ENE visible
24 Apr - 09:02:30 10° WSW 09:05:26 18° WNW 09:08:22 10° NNW visible
24 Apr - 19:51:30 10° N 19:57:36 59° ENE 20:03:48 10° SSE daylight
24 Apr - 21:38:06 10° W 21:40:40 13° WSW 21:43:13 10° SW daylight
25 Apr - 08:26:26 10° SW 08:30:23 33° WNW 08:34:16 10° N visible
25 Apr - 19:16:54 10° N 19:22:31 36° ENE 19:28:15 10° SE daylight
25 Apr - 21:00:54 10° WNW 21:05:30 21° WSW 21:10:07 10° SSW daylight
